WA7SB-7 Weather Reports


Display with metric or nautical units.
time (UTC)temp
F
wind
direction
speed
MPH
gust
MPH
rain 1hr
in
rain 24hr
in
rain mn
in
humidity
%
barometer
mb
20260902110516 61 127 1.0 7.0 0.00 0.02 0.00 80 1008.9
20260902110418 60 276 2.0 7.0 0.00 0.02 0.00 79 1008.9
20260902110032 60 104 1.0 8.0 0.00 0.02 0.00 80 1009.0
20260902105913 60 89 1.0 8.0 0.00 0.02 0.00 80 1008.9
20260902105516 60 296 1.0 8.0 0.00 0.02 0.00 81 1009.0
20260902105418 60 303 1.0 5.0 0.00 0.02 0.00 80 1009.0
20260902105021 60 113 1.0 7.0 0.00 0.02 0.00 80 1009.0
20260902104922 60 253 1.0 7.0 0.00 0.02 0.00 80 1009.1
20260902104526 60 13 1.0 8.0 0.00 0.02 0.00 81 1009.1
20260902104428 60 285 1.0 8.0 0.00 0.02 0.00 81 1009.2
20260902104032 60 283 3.0 10.0 0.00 0.02 0.00 81 1009.1
20260902103914 60 13 3.0 10.0 0.00 0.02 0.00 81 1009.2
20260902103518 60 84 4.0 10.0 0.00 0.02 0.00 82 1009.3
20260902103418 60 98 3.0 10.0 0.00 0.02 0.00 83 1009.3
20260902103021 60 222 2.0 11.0 0.00 0.02 0.00 83 1009.4
20260902102922 60 260 3.0 11.0 0.00 0.02 0.00 83 1009.4
20260902102522 59 108 3.0 11.0 0.00 0.02 0.00 84 1009.5
20260902102428 59 94 3.0 11.0 0.00 0.02 0.00 85 1009.6
20260902102025 59 101 1.0 5.0 0.00 0.02 0.00 86 1009.5
20260902101930 59 246 1.0 5.0 0.00 0.02 0.00 87 1009.5
20260902101529 59 269 1.0 5.0 0.00 0.02 0.00 86 1009.5
20260902101416 59 59 1.0 5.0 0.00 0.02 0.00 87 1009.5
20260902101017 59 306 1.0 2.0 0.00 0.02 0.00 87 1009.5
20260902100919 58 268 1.0 3.0 0.00 0.02 0.00 87 1009.5
20260902100522 58 127 0.0 3.0 0.00 0.02 0.00 88 1009.5
20260902100423 58 217 0.0 3.0 0.00 0.02 0.00 88 1009.5
20260902100018 59 319 0.0 2.0 0.00 0.02 0.00 87 1009.6
20260902095918 59 319 0.0 6.0 0.00 0.02 0.00 87 1009.6
20260902095521 59 21 0.0 6.0 0.00 0.02 0.00 87 1009.5
20260902095422 59 19 0.0 6.0 0.00 0.02 0.00 87 1009.6
20260902095026 59 58 1.0 5.0 0.00 0.02 0.00 87 1009.6
20260902094927 59 53 0.0 5.0 0.00 0.02 0.00 87 1009.7
20260902094529 59 34 2.0 5.0 0.00 0.02 0.00 87 1009.8
20260902094430 59 56 2.0 6.0 0.00 0.02 0.00 88 1009.8
20260902094015 58 291 1.0 6.0 0.00 0.02 0.00 88 1009.9
20260902093916 59 28 1.0 6.0 0.00 0.02 0.00 88 1009.9
20260902093521 58 84 1.0 7.0 0.00 0.02 0.00 88 1010.0
20260902093422 58 282 1.0 9.0 0.00 0.02 0.00 88 1010.0
20260902093024 58 78 2.0 9.0 0.00 0.02 0.00 88 1010.0
20260902092927 58 29 2.0 12.0 0.00 0.02 0.00 88 1010.1
20260902092531 58 314 2.0 12.0 0.00 0.02 0.00 88 1010.1
20260902092412 59 9 1.0 12.0 0.00 0.02 0.00 89 1010.2
20260902092015 58 68 3.0 12.0 0.00 0.02 0.00 89 1010.3
20260902091918 58 221 4.0 10.0 0.00 0.02 0.00 89 1010.3
20260902091521 58 101 4.0 8.0 0.00 0.02 0.00 89 1010.3
20260902091424 58 127 4.0 8.0 0.00 0.02 0.00 89 1010.3
20260902091023 58 51 3.0 9.0 0.00 0.02 0.00 90 1010.4
20260902090927 58 328 3.0 9.0 0.00 0.02 0.00 90 1010.4
20260902090524 58 188 4.0 9.0 0.00 0.02 0.00 90 1010.4
20260902090428 58 32 4.0 9.0 0.00 0.02 0.00 90 1010.5
20260902090016 58 72 2.0 14.0 0.00 0.02 0.00 90 1010.4
20260902085917 58 241 2.0 14.0 0.00 0.02 0.00 90 1010.5
20260902085551 58 81 3.0 14.0 0.00 0.02 0.00 90 1010.6
20260902085022 58 300 3.0 9.0 0.00 0.02 0.00 90 1010.7
20260902084924 58 275 3.0 9.0 0.00 0.02 0.00 90 1010.5
20260902084527 58 326 3.0 9.0 0.00 0.02 0.00 91 1010.7
20260902084429 58 68 2.0 9.0 0.00 0.02 0.00 91 1010.7
20260902084031 58 316 2.0 12.0 0.00 0.02 0.00 91 1010.7
20260902083913 58 24 4.0 12.0 0.00 0.02 0.00 91 1010.8
20260902083518 58 255 4.0 12.0 0.00 0.02 0.00 91 1010.8
20260902083419 58 293 2.0 12.0 0.00 0.02 0.00 91 1010.8
20260902083024 58 269 3.0 9.0 0.00 0.02 0.00 91 1010.8
20260902082926 58 84 4.0 9.0 0.00 0.02 0.00 91 1010.7
20260902082532 58 11 3.0 12.0 0.00 0.02 0.00 91 1010.9
20260902082415 58 139 3.0 12.0 0.00 0.02 0.00 91 1010.8
20260902082020 58 249 4.0 12.0 0.00 0.02 0.00 91 1010.8
20260902081922 58 323 5.0 12.0 0.00 0.02 0.00 92 1010.9
20260902081526 58 326 3.0 12.0 0.00 0.02 0.00 92 1010.9
20260902081429 58 127 2.0 12.0 0.00 0.02 0.00 91 1011.0
20260902081032 58 77 2.0 13.0 0.00 0.02 0.00 91 1011.0
20260902080912 58 126 3.0 13.0 0.00 0.02 0.00 91 1011.0
20260902080516 58 307 5.0 13.0 0.00 0.02 0.00 91 1010.9
20260902080415 58 274 3.0 12.0 0.00 0.02 0.00 91 1011.0
20260902080026 58 311 2.0 9.0 0.00 0.02 0.00 91 1011.1
20260902075932 58 55 3.0 9.0 0.00 0.02 0.00 91 1011.1
20260902075531 58 311 3.0 10.0 0.00 0.02 0.00 91 1011.3
20260902075418 58 55 2.0 10.0 0.00 0.02 0.00 91 1011.1
20260902075018 58 358 2.0 10.0 0.00 0.02 0.00 91 1011.1
20260902074921 58 122 3.0 10.0 0.00 0.02 0.00 91 1011.1
20260902074528 58 15 2.0 9.0 0.00 0.02 0.00 91 1011.1
20260902074431 58 17 3.0 9.0 0.00 0.02 0.00 91 1011.1
20260902074014 58 313 3.0 10.0 0.00 0.02 0.00 90 1011.2
20260902073917 58 51 2.0 10.0 0.00 0.02 0.00 90 1011.3
20260902073552 58 58 2.0 10.0 0.00 0.02 0.00 90 1011.1
20260902073051 58 270 1.0 8.0 0.00 0.02 0.00 90 1011.1
20260902072521 58 46 2.0 5.0 0.00 0.02 0.00 92 1011.2
20260902072423 58 57 1.0 6.0 0.00 0.02 0.00 92 1011.2
20260902072027 58 352 1.0 6.0 0.00 0.02 0.00 92 1011.2
20260902071929 58 80 1.0 6.0 0.00 0.02 0.00 92 1011.3
20260902071533 58 66 2.0 7.0 0.00 0.02 0.00 92 1011.3
20260902071415 58 94 1.0 7.0 0.00 0.02 0.00 92 1011.3
20260902071047 58 294 3.0 7.0 0.00 0.02 0.00 92 1011.4
20260902070519 58 300 3.0 10.0 0.00 0.02 0.00 92 1011.5
20260902070420 58 264 3.0 10.0 0.00 0.02 0.00 92 1011.6
20260902070014 58 278 2.0 10.0 0.00 0.02 0.02 92 1011.6
20260902065914 58 259 2.0 10.0 0.00 0.02 0.02 92 1011.6
20260902065521 58 304 2.0 10.0 0.00 0.02 0.02 92 1011.6
20260902065422 58 315 3.0 10.0 0.00 0.02 0.02 92 1011.6
20260902065029 58 248 4.0 12.0 0.00 0.02 0.02 92 1011.6
20260902064930 58 88 4.0 12.0 0.00 0.02 0.02 92 1011.6
20260902064516 58 195 3.0 12.0 0.00 0.02 0.02 92 1011.6
20260902064417 58 135 5.0 12.0 0.00 0.02 0.02 92 1011.6
20260902064021 58 86 3.0 10.0 0.00 0.02 0.02 91 1011.7
20260902063924 58 52 2.0 9.0 0.00 0.02 0.02 91 1011.7
20260902063532 58 236 3.0 11.0 0.00 0.02 0.02 91 1011.7
20260902063413 58 294 4.0 11.0 0.00 0.02 0.02 91 1011.7
20260902063019 58 78 3.0 11.0 0.00 0.02 0.02 91 1011.7
20260902062921 58 254 3.0 11.0 0.00 0.02 0.02 91 1011.7
20260902062529 58 78 2.0 12.0 0.00 0.02 0.02 91 1011.8
20260902062431 59 314 2.0 12.0 0.00 0.02 0.02 91 1011.7
20260902062017 59 86 4.0 12.0 0.00 0.02 0.02 91 1011.8
20260902061917 58 310 3.0 12.0 0.00 0.02 0.02 91 1011.8
20260902061547 58 117 3.0 11.0 0.00 0.02 0.02 91 1011.8
20260902061429 58 98 3.0 11.0 0.00 0.02 0.02 91 1011.8
20260902061015 58 220 2.0 7.0 0.00 0.02 0.02 91 1011.9
20260902060917 58 288 2.0 7.0 0.00 0.02 0.02 91 1011.8
20260902060525 58 295 2.0 8.0 0.00 0.02 0.02 91 1011.9
20260902060425 58 60 2.0 8.0 0.00 0.02 0.02 91 1012.0
20260902060017 58 20 2.0 8.0 0.00 0.02 0.02 91 1011.9
20260902055922 58 51 3.0 8.0 0.00 0.02 0.02 91 1011.9
20260902055526 58 294 1.0 9.0 0.00 0.02 0.02 91 1012.0
20260902055413 58 98 1.0 9.0 0.00 0.02 0.02 91 1012.1
20260902055015 58 70 3.0 9.0 0.00 0.02 0.02 91 1012.1
20260902054922 58 62 2.0 7.0 0.00 0.02 0.02 91 1012.1
20260902054525 58 323 3.0 7.0 0.00 0.02 0.02 92 1012.2
20260902054426 58 269 2.0 7.0 0.00 0.02 0.02 92 1012.1
20260902054030 58 56 1.0 7.0 0.00 0.02 0.02 92 1012.2
20260902053931 58 288 2.0 7.0 0.00 0.02 0.02 92 1012.2
20260902053517 58 23 2.0 7.0 0.00 0.02 0.02 93 1012.2
20260902053415 58 340 2.0 7.0 0.00 0.02 0.02 93 1012.2
20260902053022 58 293 1.0 5.0 0.00 0.02 0.02 93 1012.2
20260902052925 58 63 2.0 5.0 0.00 0.02 0.02 93 1012.1
20260902052529 58 63 2.0 4.0 0.00 0.02 0.02 93 1012.3
20260902052428 58 320 2.0 6.0 0.00 0.02 0.02 93 1012.2
20260902052032 58 259 1.0 6.0 0.00 0.02 0.02 93 1012.4
20260902051914 58 279 1.0 6.0 0.00 0.02 0.02 93 1012.4
20260902051522 58 53 2.0 6.0 0.00 0.02 0.02 93 1012.4
20260902051425 58 45 1.0 7.0 0.00 0.02 0.02 93 1012.4
20260902051028 58 309 1.0 7.0 0.00 0.02 0.02 93 1012.4
20260902050927 58 347 1.0 7.0 0.00 0.02 0.02 93 1012.4
20260902050533 58 313 1.0 5.0 0.01 0.02 0.02 93 1012.4
20260902050414 58 292 2.0 5.0 0.01 0.02 0.02 93 1012.4
20260902050024 58 286 2.0 5.0 0.01 0.02 0.02 93 1012.4
20260902045924 58 321 2.0 5.0 0.01 0.02 0.02 93 1012.3
20260902045529 58 304 2.0 5.0 0.01 0.02 0.02 93 1012.5
20260902045430 58 6 1.0 7.0 0.01 0.02 0.02 93 1012.4
20260902045018 58 15 2.0 7.0 0.02 0.02 0.02 93 1012.5
20260902044921 58 57 2.0 7.0 0.02 0.02 0.02 93 1012.5
20260902044526 58 273 2.0 8.0 0.02 0.02 0.02 93 1012.5
20260902044429 58 71 2.0 8.0 0.02 0.02 0.02 93 1012.6
20260902044033 58 305 2.0 9.0 0.02 0.02 0.02 94 1012.6
20260902043916 58 302 2.0 9.0 0.02 0.02 0.02 93 1012.6
20260902043523 58 111 3.0 9.0 0.02 0.02 0.02 93 1012.6
20260902043425 58 311 2.0 8.0 0.02 0.02 0.02 93 1012.6
20260902043028 58 222 2.0 8.0 0.02 0.02 0.02 94 1012.6
20260902042915 58 279 1.0 8.0 0.02 0.02 0.02 94 1012.6
20260902042517 58 302 3.0 8.0 0.02 0.02 0.02 94 1012.7
20260902042422 58 274 2.0 6.0 0.02 0.02 0.02 94 1012.7
20260902042024 58 69 1.0 6.0 0.02 0.02 0.02 94 1012.7
20260902041931 58 101 2.0 6.0 0.02 0.02 0.02 94 1012.7
20260902041533 58 83 2.0 6.0 0.02 0.02 0.02 94 1012.7
20260902041417 58 60 1.0 6.0 0.02 0.02 0.02 94 1012.6
20260902041017 58 301 3.0 10.0 0.02 0.02 0.02 93 1012.6
20260902040918 58 89 2.0 10.0 0.02 0.02 0.02 93 1012.6
20260902040525 58 231 3.0 10.0 0.01 0.01 0.01 93 1012.6
20260902040425 58 73 3.0 10.0 0.01 0.01 0.01 93 1012.6
20260902040020 58 36 2.0 8.0 0.01 0.01 0.01 93 1012.6
20260902035923 58 126 2.0 8.0 0.01 0.01 0.01 93 1012.6
20260902035531 58 80 3.0 8.0 0.01 0.01 0.01 93 1012.6
20260902035431 58 68 2.0 8.0 0.01 0.01 0.01 93 1012.7
20260902035017 58 208 2.0 6.0 0.00 0.00 0.00 93 1012.6
20260902034919 59 243 2.0 5.0 0.00 0.00 0.00 93 1012.6
20260902034527 59 326 1.0 6.0 0.00 0.00 0.00 92 1012.6
20260902034430 59 26 2.0 6.0 0.00 0.00 0.00 92 1012.6
20260902034017 59 336 2.0 6.0 0.00 0.00 0.00 92 1012.7
20260902033921 59 92 2.0 7.0 0.00 0.00 0.00 92 1012.7
20260902033529 59 280 2.0 9.0 0.00 0.00 0.00 92 1012.7
20260902033429 59 11 2.0 9.0 0.00 0.00 0.00 91 1012.7
20260902033027 59 296 3.0 9.0 0.00 0.00 0.00 91 1012.6
20260902013030 60 65 1.0 7.0 0.00 0.00 0.00 89 1012.4
20260902012929 60 79 1.0 7.0 0.00 0.00 0.00 89 1012.5
20260902012528 60 290 2.0 7.0 0.00 0.00 0.00 89 1012.4
20260902012430 60 255 2.0 7.0 0.00 0.00 0.00 89 1012.4
20260902012032 60 307 1.0 7.0 0.00 0.00 0.00 89 1012.5
20260902011914 60 158 1.0 7.0 0.00 0.00 0.00 89 1012.4
20260902011516 60 41 2.0 7.0 0.00 0.00 0.00 89 1012.4
20260902011417 60 51 2.0 7.0 0.00 0.00 0.00 89 1012.4
20260902011021 60 60 1.0 9.0 0.00 0.00 0.00 89 1012.4
20260902010920 60 290 2.0 9.0 0.00 0.00 0.00 89 1012.4
20260902010523 61 114 3.0 9.0 0.00 0.00 0.00 88 1012.5
20260902010423 61 335 2.0 9.0 0.00 0.00 0.00 88 1012.4
20260902010028 61 290 3.0 7.0 0.00 0.00 0.00 87 1012.4
20260902005914 62 292 2.0 7.0 0.00 0.00 0.00 87 1012.3
20260902005514 62 240 3.0 6.0 0.00 0.00 0.00 87 1012.4
20260902005418 62 123 2.0 6.0 0.00 0.00 0.00 87 1012.4
20260902005014 62 112 2.0 6.0 0.00 0.00 0.00 87 1012.4
20260902004918 62 271 2.0 6.0 0.00 0.00 0.00 87 1012.4
20260902004516 62 101 1.0 6.0 0.00 0.00 0.00 88 1012.4
20260902004417 61 132 1.0 5.0 0.00 0.00 0.00 88 1012.4
20260902004019 61 284 1.0 6.0 0.00 0.00 0.00 89 1012.4
20260902003917 61 283 1.0 6.0 0.00 0.00 0.00 88 1012.4
20260902003522 61 115 2.0 6.0 0.00 0.00 0.00 89 1012.4
20260902003418 61 189 1.0 6.0 0.00 0.00 0.00 89 1012.4
20260902003020 61 66 3.0 6.0 0.00 0.00 0.00 88 1012.5
20260902002921 61 281 3.0 6.0 0.00 0.00 0.00 88 1012.4
20260902002524 61 341 3.0 6.0 0.00 0.00 0.00 88 1012.5
20260902002423 61 275 2.0 6.0 0.00 0.00 0.00 88 1012.6
20260902002024 61 84 2.0 7.0 0.00 0.00 0.00 88 1012.4
20260902001925 61 108 2.0 7.0 0.00 0.00 0.00 88 1012.5
20260902001527 61 58 2.0 8.0 0.00 0.00 0.00 88 1012.6
20260902001429 61 285 2.0 8.0 0.00 0.00 0.00 88 1012.5
20260902001028 61 158 3.0 8.0 0.00 0.00 0.00 88 1012.6
20260902000927 61 270 3.0 8.0 0.00 0.00 0.00 88 1012.6
20260902000528 61 38 2.0 7.0 0.00 0.00 0.00 88 1012.6
20260902000426 61 87 1.0 7.0 0.00 0.00 0.00 88 1012.6
20260902000018 61 97 1.0 6.0 0.00 0.00 0.00 89 1012.6
20260901235919 61 351 1.0 8.0 0.00 0.00 0.00 89 1012.6
20260901235516 61 66 2.0 8.0 0.00 0.00 0.00 89 1012.7
20260901235415 61 334 2.0 8.0 0.00 0.00 0.00 89 1012.7
20260901235014 61 258 1.0 6.0 0.00 0.00 0.00 89 1012.6
20260901234919 61 264 2.0 8.0 0.00 0.00 0.00 89 1012.6
20260901234515 60 78 3.0 8.0 0.00 0.00 0.00 89 1012.8
20260901234420 60 323 2.0 8.0 0.00 0.00 0.00 89 1012.8
20260901234019 60 289 4.0 8.0 0.00 0.00 0.00 89 1012.8
20260901233917 60 284 3.0 8.0 0.00 0.00 0.00 89 1012.8
20260901233519 60 344 1.0 9.0 0.00 0.00 0.00 89 1012.8
20260901233416 60 300 2.0 9.0 0.00 0.00 0.00 89 1012.9
20260901233018 60 10 2.0 9.0 0.00 0.00 0.00 89 1012.9
20260901232919 60 325 2.0 9.0 0.00 0.00 0.00 89 1012.9
20260901232522 60 346 3.0 7.0 0.00 0.00 0.00 89 1012.9
20260901232421 61 42 3.0 7.0 0.00 0.00 0.00 88 1012.9
20260901232023 61 283 2.0 11.0 0.00 0.00 0.00 88 1012.9
20260901231921 61 157 2.0 11.0 0.00 0.00 0.00 88 1013.0
20260901231524 61 73 3.0 11.0 0.00 0.00 0.00 87 1013.0
20260901231425 61 124 3.0 11.0 0.00 0.00 0.00 87 1013.0
20260901231028 61 243 2.0 11.0 0.00 0.00 0.00 86 1013.0
20260901230931 61 58 2.0 11.0 0.00 0.00 0.00 86 1012.9
20260901230515 62 323 3.0 9.0 0.00 0.00 0.00 85 1012.9
20260901230413 62 271 3.0 9.0 0.00 0.00 0.00 85 1012.9
20260901230024 62 305 3.0 10.0 0.00 0.00 0.00 85 1013.0
20260901225923 62 115 3.0 10.0 0.00 0.00 0.00 85 1012.9
20260901225526 62 312 4.0 10.0 0.00 0.00 0.00 86 1013.0
20260901225427 62 195 1.0 9.0 0.00 0.00 0.00 86 1013.1
20260901225029 62 46 3.0 9.0 0.00 0.00 0.00 85 1013.0
20260901224931 62 78 3.0 9.0 0.00 0.00 0.00 85 1013.0
20260901224528 62 287 3.0 9.0 0.00 0.00 0.00 84 1013.0
20260901224434 62 359 2.0 7.0 0.00 0.00 0.00 84 1013.0
20260901224031 62 68 2.0 7.0 0.00 0.00 0.00 84 1013.0
20260901223917 62 74 2.0 7.0 0.00 0.00 0.00 84 1013.1
20260901223516 62 302 1.0 7.0 0.00 0.00 0.00 85 1013.0
20260901223420 62 343 2.0 11.0 0.00 0.00 0.00 86 1013.0
20260901223016 62 275 2.0 11.0 0.00 0.00 0.00 86 1013.1
20260901222916 61 218 2.0 11.0 0.00 0.00 0.00 86 1013.0
20260901222520 61 286 3.0 10.0 0.00 0.00 0.00 86 1013.0
20260901222423 61 188 3.0 10.0 0.00 0.00 0.00 86 1013.1
20260901222025 61 129 3.0 10.0 0.00 0.00 0.00 87 1013.1
20260901221927 61 67 3.0 10.0 0.00 0.00 0.00 86 1013.1
20260901221529 61 330 3.0 9.0 0.00 0.00 0.00 87 1013.1
20260901221430 61 235 3.0 9.0 0.00 0.00 0.00 87 1013.1
20260901221032 61 32 3.0 9.0 0.00 0.00 0.00 86 1013.1
20260901220915 61 69 3.0 6.0 0.00 0.00 0.00 86 1013.0
20260901220519 61 287 2.0 7.0 0.00 0.00 0.00 86 1013.0
20260901220418 61 135 2.0 7.0 0.00 0.00 0.00 86 1013.0
20260901220032 61 110 3.0 7.0 0.00 0.00 0.00 86 1013.0
20260901215913 61 324 3.0 7.0 0.00 0.00 0.00 86 1013.1
20260901215514 61 294 2.0 7.0 0.00 0.00 0.00 86 1013.0
20260901215415 61 100 2.0 7.0 0.00 0.00 0.00 86 1013.0
20260901215017 61 264 3.0 7.0 0.00 0.00 0.00 85 1013.0
20260901214916 61 290 2.0 7.0 0.00 0.00 0.00 85 1013.0
20260901214519 61 141 2.0 7.0 0.00 0.00 0.00 85 1012.9
20260901214420 61 94 3.0 7.0 0.00 0.00 0.00 85 1012.9
20260901214024 61 299 1.0 6.0 0.00 0.00 0.00 85 1012.9
20260901213926 61 129 1.0 6.0 0.00 0.00 0.00 85 1012.9
20260901213526 61 146 1.0 6.0 0.00 0.00 0.00 85 1012.9
20260901213431 61 72 1.0 6.0 0.00 0.00 0.00 85 1012.9
20260901213030 61 316 2.0 6.0 0.00 0.00 0.00 85 1012.9
20260901212915 61 117 3.0 6.0 0.00 0.00 0.00 85 1013.0
20260901212514 61 74 2.0 6.0 0.00 0.00 0.00 85 1013.0
20260901212418 61 63 1.0 7.0 0.00 0.00 0.00 85 1013.0
20260901212018 61 48 2.0 7.0 0.00 0.00 0.00 84 1012.9
20260901211917 62 262 3.0 7.0 0.00 0.00 0.00 83 1012.9
20260901211518 62 302 2.0 8.0 0.00 0.00 0.00 82 1012.8
20260901211419 62 278 3.0 8.0 0.00 0.00 0.00 82 1012.8
20260901211022 63 319 2.0 9.0 0.00 0.00 0.00 82 1012.8
20260901210924 63 63 2.0 9.0 0.00 0.00 0.00 82 1012.8
20260901210529 63 16 2.0 9.0 0.00 0.00 0.00 82 1012.7
20260901210429 62 108 2.0 9.0 0.00 0.00 0.00 82 1012.8
20260901210022 62 339 2.0 7.0 0.00 0.00 0.00 83 1012.8
20260901205923 62 152 2.0 7.0 0.00 0.00 0.00 82 1012.8
20260901205525 62 255 2.0 5.0 0.00 0.00 0.00 83 1012.7
20260901205427 62 150 1.0 5.0 0.00 0.00 0.00 83 1012.8
20260901205026 62 299 3.0 5.0 0.00 0.00 0.00 83 1012.8
20260901204925 62 163 2.0 4.0 0.00 0.00 0.00 83 1012.9
20260901204525 62 103 1.0 5.0 0.00 0.00 0.00 83 1012.8
20260901204424 62 316 1.0 5.0 0.00 0.00 0.00 83 1012.9
20260901204026 62 136 1.0 6.0 0.00 0.00 0.00 83 1012.8
20260901203926 62 89 1.0 6.0 0.00 0.00 0.00 83 1012.8
20260901203528 62 266 1.0 8.0 0.00 0.00 0.00 82 1012.9
20260901203426 62 335 1.0 8.0 0.00 0.00 0.00 83 1012.9
20260901203026 62 295 2.0 8.0 0.00 0.00 0.00 83 1012.9
20260901202929 62 65 2.0 8.0 0.00 0.00 0.00 82 1012.9
20260901202527 62 115 1.0 5.0 0.00 0.00 0.00 83 1013.0
20260901202433 62 159 1.0 5.0 0.00 0.00 0.00 83 1013.0
20260901202030 62 8 2.0 6.0 0.00 0.00 0.00 83 1012.9
20260901201917 62 56 2.0 6.0 0.00 0.00 0.00 85 1012.9
20260901201514 62 269 2.0 6.0 0.00 0.00 0.00 84 1013.0
20260901201420 62 57 2.0 6.0 0.00 0.00 0.00 84 1013.0
20260901201019 62 60 1.0 4.0 0.00 0.00 0.00 84 1012.9
20260901200921 62 291 1.0 4.0 0.00 0.00 0.00 84 1012.9
20260901200526 62 89 1.0 6.0 0.00 0.00 0.00 84 1013.0
20260901200427 62 270 1.0 6.0 0.00 0.00 0.00 84 1013.0
20260901200018 62 95 2.0 6.0 0.00 0.00 0.00 84 1013.0
20260901195919 62 191 1.0 6.0 0.00 0.00 0.00 84 1013.0
20260901195520 62 9 2.0 4.0 0.00 0.00 0.00 83 1012.9
20260901195422 62 285 2.0 4.0 0.00 0.00 0.00 83 1013.0
20260901195024 63 32 1.0 4.0 0.00 0.00 0.00 83 1012.9
20260901194924 63 291 1.0 4.0 0.00 0.00 0.00 83 1012.9
20260901194525 63 111 1.0 6.0 0.00 0.00 0.00 84 1012.9
20260901194425 62 240 1.0 6.0 0.00 0.00 0.00 83 1012.9
20260901194027 62 75 1.0 6.0 0.00 0.00 0.00 83 1012.8
20260901193928 63 133 2.0 6.0 0.00 0.00 0.00 82 1012.9
20260901193531 63 176 1.0 9.0 0.00 0.00 0.00 82 1012.9
20260901193429 63 318 2.0 9.0 0.00 0.00 0.00 82 1012.9
20260901193029 63 13 2.0 9.0 0.00 0.00 0.00 83 1012.9
20260901192912 63 79 1.0 8.0 0.00 0.00 0.00 83 1012.9
20260901192515 62 285 2.0 9.0 0.00 0.00 0.00 83 1012.9
20260901192417 62 140 2.0 9.0 0.00 0.00 0.00 83 1012.9
20260901192019 62 14 2.0 9.0 0.00 0.00 0.00 83 1012.9
20260901191920 62 63 2.0 9.0 0.00 0.00 0.00 82 1012.9
20260901191522 62 341 1.0 4.0 0.00 0.00 0.00 82 1012.9
20260901191423 62 101 1.0 5.0 0.00 0.00 0.00 82 1012.9
20260901191021 63 53 1.0 5.0 0.00 0.00 0.00 82 1012.8
20260901190925 63 96 1.0 5.0 0.00 0.00 0.00 82 1012.9
20260901190525 62 289 2.0 5.0 0.00 0.00 0.00 84 1012.8
20260901190429 62 301 2.0 5.0 0.00 0.00 0.00 84 1012.8
20260901190020 62 7 2.0 10.0 0.00 0.00 0.00 84 1012.9
20260901185921 61 70 2.0 10.0 0.00 0.00 0.00 84 1012.9
20260901185521 61 295 2.0 10.0 0.00 0.00 0.00 84 1013.0
20260901185423 61 317 3.0 10.0 0.00 0.00 0.00 84 1013.0
20260901185025 62 114 1.0 5.0 0.00 0.00 0.00 84 1013.0
20260901184926 62 70 1.0 5.0 0.00 0.00 0.00 84 1013.1
20260901184528 62 323 1.0 5.0 0.00 0.00 0.00 83 1013.0
20260901184431 62 76 2.0 5.0 0.00 0.00 0.00 84 1013.0
20260901184032 62 174 2.0 5.0 0.00 0.00 0.00 83 1013.0
20260901183915 62 289 2.0 5.0 0.00 0.00 0.00 82 1013.0
20260901183518 62 302 1.0 5.0 0.00 0.00 0.00 84 1012.9
20260901183418 62 72 1.0 5.0 0.00 0.00 0.00 84 1012.9
20260901183018 62 235 1.0 7.0 0.00 0.00 0.00 84 1012.9
20260901182919 62 82 2.0 7.0 0.00 0.00 0.00 84 1012.9
20260901182520 62 71 1.0 7.0 0.00 0.00 0.00 84 1012.9
20260901182422 62 65 2.0 7.0 0.00 0.00 0.00 84 1012.8
20260901182024 62 14 1.0 5.0 0.00 0.00 0.00 84 1012.8
20260901181927 62 252 1.0 6.0 0.00 0.00 0.00 84 1012.9
20260901181528 62 161 2.0 6.0 0.00 0.00 0.00 84 1012.7
20260901181430 62 113 1.0 6.0 0.00 0.00 0.00 84 1012.8
20260901181032 62 72 2.0 4.0 0.00 0.00 0.00 84 1012.7
20260901180914 62 59 2.0 4.0 0.00 0.00 0.00 83 1012.7
20260901180519 62 116 2.0 6.0 0.00 0.00 0.00 83 1012.6
20260901180418 62 13 2.0 6.0 0.00 0.00 0.00 84 1012.6
20260901180023 61 271 1.0 6.0 0.00 0.00 0.00 84 1012.6
20260901175926 61 84 1.0 6.0 0.00 0.00 0.00 84 1012.7
20260901175522 61 21 1.0 3.0 0.00 0.00 0.00 84 1012.6
20260901175424 61 193 1.0 4.0 0.00 0.00 0.00 85 1012.7
20260901175023 61 42 0.0 6.0 0.00 0.00 0.00 85 1012.7
20260901174923 61 109 1.0 6.0 0.00 0.00 0.00 85 1012.6
20260901174524 61 94 1.0 6.0 0.00 0.00 0.00 85 1012.6
20260901174425 61 47 1.0 6.0 0.00 0.00 0.00 85 1012.6
20260901174026 61 116 2.0 5.0 0.00 0.00 0.00 85 1012.6
20260901173928 61 139 1.0 3.0 0.00 0.00 0.00 85 1012.7
20260901173530 61 31 1.0 4.0 0.00 0.00 0.00 87 1012.6
20260901173430 61 286 1.0 4.0 0.00 0.00 0.00 86 1012.7
20260901173032 61 210 2.0 4.0 0.00 0.00 0.00 86 1012.8
20260901172932 61 58 2.0 5.0 0.00 0.00 0.00 86 1012.8
20260901172531 61 334 1.0 5.0 0.00 0.00 0.00 86 1012.8
20260901172413 61 139 2.0 5.0 0.00 0.00 0.00 86 1012.8
20260901172015 62 334 1.0 4.0 0.00 0.00 0.00 87 1012.9
20260901171916 62 326 1.0 4.0 0.00 0.00 0.00 87 1012.7
20260901171515 61 242 1.0 6.0 0.00 0.00 0.00 88 1012.7
20260901171417 61 284 1.0 6.0 0.00 0.00 0.00 87 1012.8
20260901171020 61 181 1.0 6.0 0.00 0.00 0.00 88 1012.7
20260901170921 61 225 2.0 6.0 0.00 0.00 0.00 89 1012.7
20260901170526 61 299 0.0 4.0 0.00 0.00 0.00 90 1012.7
20260901170426 61 37 0.0 4.0 0.00 0.00 0.00 89 1012.6
20260901170019 60 355 1.0 4.0 0.00 0.00 0.00 89 1012.7
20260901165919 60 57 1.0 4.0 0.00 0.00 0.00 89 1012.7
20260901165513 60 42 1.0 3.0 0.00 0.00 0.00 90 1012.7
20260901165420 60 342 1.0 5.0 0.00 0.00 0.00 90 1012.7
20260901165018 60 303 1.0 5.0 0.00 0.00 0.00 91 1012.7
20260901164923 60 122 1.0 5.0 0.00 0.00 0.00 91 1012.7
20260901164520 60 309 0.0 2.0 0.00 0.00 0.00 92 1012.6
20260901164420 60 68 0.0 4.0 0.00 0.00 0.00 92 1012.7
20260901164020 59 259 0.0 4.0 0.00 0.00 0.00 92 1012.7
20260901163920 59 248 0.0 4.0 0.00 0.00 0.00 92 1012.7
20260901163553 59 87 1.0 4.0 0.00 0.00 0.00 92 1012.7
20260901163020 59 27 1.0 3.0 0.00 0.00 0.00 94 1012.6
20260901162922 59 82 1.0 3.0 0.00 0.00 0.00 93 1012.6
20260901162524 58 283 1.0 3.0 0.00 0.00 0.00 93 1012.7
20260901162426 58 107 1.0 3.0 0.00 0.00 0.00 93 1012.8
20260901162028 58 49 0.0 3.0 0.00 0.00 0.00 93 1012.8
20260901161931 58 42 1.0 3.0 0.00 0.00 0.00 93 1012.7
20260901161516 58 33 1.0 3.0 0.00 0.00 0.00 93 1012.9
20260901161419 58 73 1.0 3.0 0.00 0.00 0.00 94 1012.9
20260901161020 58 337 1.0 3.0 0.00 0.00 0.00 94 1012.9
20260901160922 58 49 0.0 3.0 0.00 0.00 0.00 93 1012.9
20260901160525 58 46 0.0 2.0 0.00 0.00 0.00 94 1012.9
20260901160425 58 16 1.0 2.0 0.00 0.00 0.00 94 1012.9
20260901160031 58 256 0.0 3.0 0.00 0.00 0.00 93 1012.8
20260901155917 58 255 0.0 3.0 0.00 0.00 0.00 93 1012.9
20260901155514 58 61 1.0 3.0 0.00 0.00 0.00 93 1012.9
20260901155421 58 231 1.0 3.0 0.00 0.00 0.00 93 1012.9
20260901155020 58 52 1.0 2.0 0.00 0.00 0.00 93 1012.8
20260901154920 58 299 1.0 2.0 0.00 0.00 0.00 93 1012.8
20260901154523 57 307 1.0 2.0 0.00 0.00 0.00 93 1012.8
20260901154425 57 264 0.0 2.0 0.00 0.00 0.00 93 1012.8
20260901154025 57 70 1.0 3.0 0.00 0.00 0.00 93 1012.9
20260901153927 57 70 1.0 3.0 0.00 0.00 0.00 93 1012.8
20260901153531 57 53 0.0 3.0 0.00 0.00 0.00 93 1012.8
20260901153432 57 44 0.0 3.0 0.00 0.00 0.00 93 1012.8
20260901153032 57 101 1.0 3.0 0.00 0.00 0.00 93 1012.8
20260901152915 57 53 1.0 3.0 0.00 0.00 0.00 93 1012.9
20260901152519 57 98 0.0 5.0 0.00 0.00 0.00 93 1012.8
20260901152421 57 116 0.0 5.0 0.00 0.00 0.00 93 1012.8
20260901152021 57 298 1.0 7.0 0.00 0.00 0.00 93 1012.9
20260901151921 57 276 1.0 7.0 0.00 0.00 0.00 93 1012.8
20260901151551 57 7 1.0 7.0 0.00 0.00 0.00 93 1012.9
20260901151021 57 251 1.0 3.0 0.00 0.00 0.00 93 1012.9
20260901150923 57 323 1.0 3.0 0.00 0.00 0.00 93 1012.9
20260901150527 57 349 1.0 4.0 0.00 0.00 0.00 93 1012.8
20260901150428 57 101 1.0 4.0 0.00 0.00 0.00 93 1012.9
20260901150016 57 330 1.0 5.0 0.00 0.00 0.00 93 1012.8
20260901145921 57 120 1.0 5.0 0.00 0.00 0.00 93 1012.8
20260901145518 57 247 1.0 5.0 0.00 0.00 0.00 93 1012.8
20260901145423 57 145 2.0 5.0 0.00 0.00 0.00 93 1012.8
20260901145020 57 253 1.0 4.0 0.00 0.00 0.00 93 1012.7
20260901144922 57 273 1.0 4.0 0.00 0.00 0.00 93 1012.8
20260901144522 57 247 1.0 4.0 0.00 0.00 0.00 93 1012.7
20260901144424 57 352 1.0 4.0 0.00 0.00 0.00 93 1012.7
20260901144024 57 266 2.0 4.0 0.00 0.00 0.00 93 1012.7
20260901143924 57 316 1.0 4.0 0.00 0.00 0.00 93 1012.7
20260901143526 57 288 1.0 4.0 0.00 0.00 0.00 93 1012.7
20260901143426 57 334 0.0 3.0 0.00 0.00 0.00 93 1012.7
20260901143028 57 302 1.0 5.0 0.00 0.00 0.00 93 1012.7
20260901142929 57 299 1.0 5.0 0.00 0.00 0.00 93 1012.7
20260901142531 57 70 2.0 5.0 0.00 0.00 0.00 93 1012.6
20260901142413 57 300 1.0 5.0 0.00 0.00 0.00 93 1012.7
20260901142013 57 212 1.0 4.0 0.00 0.00 0.00 93 1012.6
20260901141913 57 280 1.0 4.0 0.00 0.00 0.00 93 1012.6
20260901141514 57 347 1.0 7.0 0.00 0.00 0.00 93 1012.5
20260901141415 57 59 2.0 7.0 0.00 0.00 0.00 93 1012.6
20260901141017 57 307 1.0 7.0 0.00 0.00 0.00 93 1012.5
20260901140918 57 122 1.0 7.0 0.00 0.00 0.00 93 1012.5
20260901140553 57 31 0.0 7.0 0.00 0.00 0.00 93 1012.5
20260901140024 57 352 1.0 4.0 0.00 0.00 0.00 93 1012.5
20260901135930 58 264 1.0 4.0 0.00 0.00 0.00 93 1012.5
20260901135527 58 321 1.0 5.0 0.00 0.00 0.00 93 1012.4
20260901135429 58 15 1.0 5.0 0.00 0.00 0.00 93 1012.4
20260901135031 58 115 1.0 5.0 0.00 0.00 0.00 93 1012.3
20260901134932 58 103 1.0 5.0 0.00 0.00 0.00 93 1012.3
20260901134534 58 13 0.0 3.0 0.00 0.00 0.00 93 1012.3
20260901134414 58 13 0.0 3.0 0.00 0.00 0.00 93 1012.4
20260901134016 58 312 1.0 4.0 0.00 0.00 0.00 93 1012.3
20260901133917 58 255 0.0 4.0 0.00 0.00 0.00 93 1012.3
20260901133522 58 262 0.0 4.0 0.00 0.00 0.00 93 1012.3
20260901133421 58 210 0.0 4.0 0.00 0.00 0.00 93 1012.3
20260901133025 58 302 1.0 4.0 0.00 0.00 0.00 93 1012.2
20260901132926 58 1 1.0 4.0 0.00 0.00 0.00 93 1012.2
20260901132526 58 51 1.0 4.0 0.00 0.00 0.00 93 1012.2
20260901132427 58 313 0.0 4.0 0.00 0.00 0.00 93 1012.1
20260901132028 58 137 1.0 4.0 0.00 0.00 0.00 93 1012.1
20260901131931 58 129 1.0 4.0 0.00 0.00 0.00 93 1012.2
20260901131532 58 75 1.0 3.0 0.00 0.00 0.00 93 1012.2
20260901131413 58 83 1.0 3.0 0.00 0.00 0.00 93 1012.2
20260901131014 58 252 1.0 3.0 0.00 0.00 0.00 93 1012.1
20260901130915 58 11 1.0 3.0 0.00 0.00 0.00 93 1012.2
20260901130519 58 316 1.0 3.0 0.00 0.00 0.00 93 1012.1
20260901130419 58 39 1.0 3.0 0.00 0.00 0.00 93 1012.1
20260901130052 58 304 1.0 5.0 0.00 0.00 0.00 93 1012.2
20260901125519 58 79 1.0 5.0 0.00 0.00 0.00 93 1012.2
20260901125419 58 72 1.0 5.0 0.00 0.00 0.00 93 1012.2
20260901125020 58 9 0.0 2.0 0.00 0.00 0.00 93 1012.2
20260901124921 58 60 0.0 4.0 0.00 0.00 0.00 94 1012.2
20260901124522 58 257 1.0 4.0 0.00 0.00 0.00 93 1012.0
20260901124423 58 217 1.0 4.0 0.00 0.00 0.00 93 1012.1
20260901124023 58 77 0.0 3.0 0.00 0.00 0.00 93 1012.1
20260901123924 58 77 1.0 3.0 0.00 0.00 0.00 93 1012.0
20260901123529 58 38 1.0 3.0 0.00 0.00 0.00 93 1012.0
20260901123430 58 217 1.0 3.0 0.00 0.00 0.00 93 1012.1
20260901123030 58 338 1.0 3.0 0.00 0.00 0.00 94 1012.2
20260901122913 58 178 1.0 3.0 0.00 0.00 0.00 93 1012.1
20260901122517 58 68 1.0 3.0 0.00 0.00 0.00 94 1012.0
20260901122420 58 73 0.0 3.0 0.00 0.00 0.00 94 1012.0
20260901122022 58 219 1.0 6.0 0.00 0.00 0.00 94 1012.1
20260901121925 58 293 1.0 6.0 0.00 0.00 0.00 94 1012.0
20260901121526 58 122 1.0 6.0 0.00 0.00 0.00 94 1012.0
20260901121429 58 53 1.0 6.0 0.00 0.00 0.00 94 1012.0
20260901121031 58 115 0.0 3.0 0.00 0.00 0.00 94 1012.0
20260901120915 58 115 1.0 3.0 0.00 0.00 0.00 94 1012.0
20260901120519 58 323 1.0 4.0 0.00 0.00 0.00 94 1012.1
20260901120419 58 265 1.0 4.0 0.00 0.00 0.00 94 1012.1
20260901120027 58 63 1.0 4.0 0.00 0.00 0.00 94 1012.1
20260901115933 58 26 0.0 4.0 0.00 0.00 0.00 94 1012.1
20260901115529 58 289 0.0 3.0 0.00 0.00 0.00 94 1012.1
20260901115435 58 48 1.0 3.0 0.00 0.00 0.00 94 1012.0
20260901115031 58 210 0.0 2.0 0.00 0.00 0.00 94 1012.1
20260901114918 58 75 0.0 4.0 0.00 0.00 0.00 94 1012.1
20260901114518 58 120 1.0 4.0 0.00 0.00 0.00 94 1012.0
20260901114418 58 61 1.0 4.0 0.00 0.00 0.00 94 1012.0
20260901114021 58 287 1.0 4.0 0.00 0.00 0.00 94 1012.0
20260901113923 58 233 1.0 4.0 0.00 0.00 0.00 94 1012.0
20260901113525 58 36 1.0 4.0 0.00 0.00 0.00 94 1012.0
20260901113426 58 60 1.0 4.0 0.00 0.00 0.00 94 1012.1
20260901113028 58 194 0.0 4.0 0.00 0.00 0.00 94 1012.1
20260901112930 58 326 1.0 4.0 0.00 0.00 0.00 94 1012.0
20260901112532 58 86 2.0 4.0 0.00 0.00 0.00 94 1012.0
20260901112414 58 263 1.0 3.0 0.00 0.00 0.00 94 1012.1
20260901112018 58 223 0.0 2.0 0.00 0.00 0.00 94 1012.1
20260901111920 58 223 0.0 2.0 0.00 0.00 0.00 94 1012.1
20260901111522 58 37 1.0 2.0 0.00 0.00 0.00 94 1012.0
20260901111425 58 255 0.0 2.0 0.00 0.00 0.00 94 1012.1
20260901111025 58 36 1.0 2.0 0.00 0.00 0.00 94 1012.0
20260901110925 58 37 1.0 2.0 0.00 0.00 0.00 94 1012.0